User: anonymous   Login
Location: Pine Mountain Observatory
(43.7910°N, 120.9377°W)
Time: 03:27:01
(UTC-07:00)
Language:

A-11 Canister half - Orbit

View from above orbital plane
View from above orbital plane
View from above satellite
View from above satellite

Ground track
Ground track

The orbit data is extracted from the following two-line orbital elements,

1    51U 60009C   19140.33038872 -.00000084 +00000-0 +20403-4 0  9996
2    51 047.2103 126.7336 0104230 070.3803 290.8201 12.18270713616045
Epoch (UTC): 20 May 2019 07:55:45
Eccentricity: 0.0104230
inclination: 47.2103°
perigee height: 1517 km
apogee height: 1683 km
right ascension of ascending node: 126.7336°
argument of perigee: 70.3803°
revolutions per day: 12.18270713
mean anomaly at epoch: 290.8201°
orbit number at epoch: 61604

The dashed part of the orbit path shows where the satellite is in the earth's shadow,  

DLR